Time,TemperatureF,DewpointF,PressureIn,WindDirection,WindDirectionDegrees,WindSpeedMPH,WindSpeedGustMPH,Humidity,HourlyPrecipIn,Conditions,Clouds,dailyrainin,SoftwareType,DateUTC
2013-06-15 00:01:00,81.5,46.2,29.87,NW,305,0.0,0.0,29,0.00,,---,0.00,VWS V14.01,2013-06-15 07:01:00,
2013-06-15 00:06:00,81.2,46.8,29.87,NW,305,0.0,0.0,30,0.00,,---,0.00,VWS V14.01,2013-06-15 07:06:00,
2013-06-15 00:11:00,80.7,46.4,29.88,NW,305,0.0,0.0,30,0.00,,---,0.00,VWS V14.01,2013-06-15 07:11:00,
2013-06-15 00:16:00,80.2,46.0,29.88,East,93,1.0,2.0,30,0.00,,---,0.00,VWS V14.01,2013-06-15 07:16:00,
2013-06-15 00:21:00,80.4,44.3,29.88,East,91,1.0,4.0,28,0.00,,---,0.00,VWS V14.01,2013-06-15 07:21:00,
2013-06-15 00:26:00,80.7,44.6,29.88,East,84,0.0,3.0,28,0.00,,---,0.00,VWS V14.01,2013-06-15 07:26:00,
2013-06-15 00:31:00,80.9,44.8,29.88,East,93,0.0,1.0,28,0.00,,---,0.00,VWS V14.01,2013-06-15 07:31:00,
2013-06-15 00:36:00,80.9,44.8,29.88,East,93,0.0,1.0,28,0.00,,---,0.00,VWS V14.01,2013-06-15 07:36:00,
2013-06-15 00:41:00,80.7,45.5,29.88,ENE,63,0.0,1.0,29,0.00,,---,0.00,VWS V14.01,2013-06-15 07:41:00,
2013-06-15 00:46:00,80.6,45.4,29.88,NE,55,0.0,1.0,29,0.00,,---,0.00,VWS V14.01,2013-06-15 07:46:00,
2013-06-15 00:51:00,80.6,45.4,29.88,NE,55,0.0,1.0,29,0.00,,---,0.00,VWS V14.01,2013-06-15 07:51:00,
2013-06-15 00:56:00,80.8,45.6,29.88,ENE,69,0.0,1.0,29,0.00,,---,0.00,VWS V14.01,2013-06-15 07:56:00,
2013-06-15 01:01:00,81.0,45.8,29.88,ENE,76,0.0,0.0,29,0.00,,---,0.00,VWS V14.01,2013-06-15 08:01:00,
2013-06-15 01:06:00,80.9,45.7,29.88,ENE,76,0.0,1.0,29,0.00,,---,0.00,VWS V14.01,2013-06-15 08:06:00,
2013-06-15 01:11:00,80.8,46.5,29.88,ENE,76,0.0,1.0,30,0.00,,---,0.00,VWS V14.01,2013-06-15 08:11:00,
2013-06-15 01:16:00,80.8,46.5,29.88,ENE,76,0.0,0.0,30,0.00,,---,0.00,VWS V14.01,2013-06-15 08:16:00,
2013-06-15 01:21:00,80.7,46.4,29.88,ENE,76,0.0,1.0,30,0.00,,---,0.00,VWS V14.01,2013-06-15 08:21:00,
2013-06-15 01:26:00,80.8,46.5,29.88,ENE,76,0.0,0.0,30,0.00,,---,0.00,VWS V14.01,2013-06-15 08:26:00,
2013-06-15 01:31:00,80.6,46.3,29.88,ENE,76,0.0,0.0,30,0.00,,---,0.00,VWS V14.01,2013-06-15 08:31:00,
2013-06-15 01:36:00,80.2,46.0,29.88,ENE,76,0.0,1.0,30,0.00,,---,0.00,VWS V14.01,2013-06-15 08:36:00,
2013-06-15 01:41:00,79.9,46.6,29.88,ENE,75,0.0,0.0,31,0.00,,---,0.00,VWS V14.01,2013-06-15 08:41:00,
2013-06-15 01:46:00,79.7,46.4,29.88,ENE,76,0.0,0.0,31,0.00,,---,0.00,VWS V14.01,2013-06-15 08:46:00,
2013-06-15 01:51:00,79.4,47.0,29.88,ENE,76,0.0,0.0,32,0.00,,---,0.00,VWS V14.01,2013-06-15 08:51:00,
2013-06-15 01:56:00,79.2,47.7,29.88,ENE,76,0.0,0.0,33,0.00,,---,0.00,VWS V14.01,2013-06-15 08:56:00,
2013-06-15 02:01:00,78.9,48.2,29.88,ENE,76,0.0,0.0,34,0.00,,---,0.00,VWS V14.01,2013-06-15 09:01:00,
2013-06-15 02:06:00,78.7,48.8,29.88,ENE,76,0.0,0.0,35,0.00,,---,0.00,VWS V14.01,2013-06-15 09:06:00,
2013-06-15 02:11:00,78.5,48.6,29.88,ENE,76,0.0,0.0,35,0.00,,---,0.00,VWS V14.01,2013-06-15 09:11:00,
2013-06-15 02:16:00,78.3,49.2,29.88,ENE,75,0.0,0.0,36,0.00,,---,0.00,VWS V14.01,2013-06-15 09:16:00,
2013-06-15 02:21:00,77.7,49.4,29.88,ENE,75,0.0,0.0,37,0.00,,---,0.00,VWS V14.01,2013-06-15 09:21:00,
2013-06-15 02:26:00,77.1,48.8,29.88,ENE,75,0.0,0.0,37,0.00,,---,0.00,VWS V14.01,2013-06-15 09:26:00,
2013-06-15 02:31:00,76.7,48.5,29.88,ENE,75,0.0,0.0,37,0.00,,---,0.00,VWS V14.01,2013-06-15 09:31:00,
2013-06-15 02:36:00,76.6,47.7,29.88,ENE,75,0.0,0.0,36,0.00,,---,0.00,VWS V14.01,2013-06-15 09:36:00,
2013-06-15 02:41:00,76.6,49.1,29.88,ENE,75,0.0,0.0,38,0.00,,---,0.00,VWS V14.01,2013-06-15 09:41:00,
2013-06-15 02:46:00,76.5,48.3,29.88,East,101,1.0,2.0,37,0.00,,---,0.00,VWS V14.01,2013-06-15 09:46:00,
2013-06-15 02:51:00,76.7,47.0,29.88,East,96,0.0,1.0,35,0.00,,---,0.00,VWS V14.01,2013-06-15 09:51:00,
2013-06-15 02:56:00,77.0,48.0,29.88,East,96,0.0,1.0,36,0.00,,---,0.00,VWS V14.01,2013-06-15 09:56:00,
2013-06-15 03:01:00,77.1,46.6,29.88,East,96,0.0,0.0,34,0.00,,---,0.00,VWS V14.01,2013-06-15 10:01:00,
2013-06-15 03:06:00,77.2,47.5,29.89,East,96,0.0,0.0,35,0.00,,---,0.00,VWS V14.01,2013-06-15 10:06:00,
2013-06-15 03:11:00,77.1,47.4,29.89,East,96,0.0,0.0,35,0.00,,---,0.00,VWS V14.01,2013-06-15 10:11:00,
2013-06-15 03:16:00,76.7,47.8,29.89,East,96,0.0,0.0,36,0.00,,---,0.00,VWS V14.01,2013-06-15 10:16:00,
2013-06-15 03:21:00,76.3,47.4,29.89,East,96,0.0,0.0,36,0.00,,---,0.00,VWS V14.01,2013-06-15 10:21:00,
2013-06-15 03:26:00,76.2,47.3,29.90,East,96,0.0,0.0,36,0.00,,---,0.00,VWS V14.01,2013-06-15 10:26:00,
2013-06-15 03:31:00,76.1,46.5,29.90,East,96,0.0,0.0,35,0.00,,---,0.00,VWS V14.01,2013-06-15 10:31:00,
2013-06-15 03:36:00,76.1,47.2,29.90,East,96,0.0,0.0,36,0.00,,---,0.00,VWS V14.01,2013-06-15 10:36:00,
2013-06-15 03:41:00,76.1,48.0,29.90,East,96,0.0,0.0,37,0.00,,---,0.00,VWS V14.01,2013-06-15 10:41:00,
2013-06-15 03:46:00,76.0,48.6,29.90,East,96,0.0,0.0,38,0.00,,---,0.00,VWS V14.01,2013-06-15 10:46:00,
2013-06-15 03:51:00,75.9,49.9,29.90,East,96,0.0,0.0,40,0.00,,---,0.00,VWS V14.01,2013-06-15 10:51:00,
2013-06-15 03:56:00,76.0,50.0,29.90,East,96,0.0,0.0,40,0.00,,---,0.00,VWS V14.01,2013-06-15 10:56:00,
2013-06-15 04:01:00,76.1,50.7,29.90,East,96,0.0,1.0,41,0.00,,---,0.00,VWS V14.01,2013-06-15 11:01:00,
2013-06-15 04:06:00,76.4,51.0,29.91,East,92,0.0,0.0,41,0.00,,---,0.00,VWS V14.01,2013-06-15 11:06:00,
2013-06-15 04:11:00,76.8,50.7,29.91,East,91,0.0,0.0,40,0.00,,---,0.00,VWS V14.01,2013-06-15 11:11:00,
2013-06-15 04:16:00,77.1,50.9,29.91,ENE,77,0.0,1.0,40,0.00,,---,0.00,VWS V14.01,2013-06-15 11:16:00,
2013-06-15 04:21:00,77.4,51.2,29.91,ENE,70,0.0,1.0,40,0.00,,---,0.00,VWS V14.01,2013-06-15 11:21:00,
2013-06-15 04:26:00,77.5,51.3,29.91,ENE,70,0.0,0.0,40,0.00,,---,0.00,VWS V14.01,2013-06-15 11:26:00,
2013-06-15 04:31:00,77.4,51.9,29.91,ENE,70,0.0,0.0,41,0.00,,---,0.00,VWS V14.01,2013-06-15 11:31:00,
2013-06-15 04:35:00,77.2,51.7,29.91,ENE,70,0.0,0.0,41,0.00,,---,0.00,VWS V14.01,2013-06-15 11:35:00,
2013-06-15 04:40:00,77.0,52.2,29.91,ENE,70,0.0,0.0,42,0.00,,---,0.00,VWS V14.01,2013-06-15 11:40:00,
2013-06-15 04:45:00,76.6,52.5,29.91,ENE,70,0.0,0.0,43,0.00,,---,0.00,VWS V14.01,2013-06-15 11:45:00,
2013-06-15 04:50:00,76.4,51.6,29.92,ENE,70,0.0,0.0,42,0.00,,---,0.00,VWS V14.01,2013-06-15 11:50:00,
2013-06-15 04:55:00,76.3,52.8,29.92,ENE,70,0.0,0.0,44,0.00,,---,0.00,VWS V14.01,2013-06-15 11:55:00,
2013-06-15 05:00:00,76.2,52.1,29.92,ENE,70,0.0,0.0,43,0.00,,---,0.00,VWS V14.01,2013-06-15 12:00:00,
2013-06-15 05:05:00,76.3,52.2,29.92,ENE,70,0.0,0.0,43,0.00,,---,0.00,VWS V14.01,2013-06-15 12:05:00,
2013-06-15 05:10:00,76.3,52.2,29.92,ENE,70,0.0,0.0,43,0.00,,---,0.00,VWS V14.01,2013-06-15 12:10:00,
2013-06-15 05:15:00,76.1,52.0,29.92,ENE,70,0.0,0.0,43,0.00,,---,0.00,VWS V14.01,2013-06-15 12:15:00,
2013-06-15 05:20:00,76.2,52.1,29.92,ENE,70,0.0,0.0,43,0.00,,---,0.00,VWS V14.01,2013-06-15 12:20:00,
2013-06-15 05:25:00,76.2,52.7,29.93,ENE,70,0.0,0.0,44,0.00,,---,0.00,VWS V14.01,2013-06-15 12:25:00,
2013-06-15 05:30:00,75.9,51.8,29.93,ENE,70,0.0,0.0,43,0.00,,---,0.00,VWS V14.01,2013-06-15 12:30:00,
2013-06-15 05:35:00,75.8,52.4,29.93,ENE,70,0.0,0.0,44,0.00,,---,0.00,VWS V14.01,2013-06-15 12:35:00,
2013-06-15 05:40:00,75.7,52.9,29.93,ENE,70,0.0,0.0,45,0.00,,---,0.00,VWS V14.01,2013-06-15 12:40:00,
2013-06-15 05:45:00,75.9,53.1,29.93,ENE,70,0.0,0.0,45,0.00,,---,0.00,VWS V14.01,2013-06-15 12:45:00,
2013-06-15 05:50:00,76.3,54.6,29.94,ENE,70,0.0,0.0,47,0.00,,---,0.00,VWS V14.01,2013-06-15 12:50:00,
2013-06-15 05:55:00,76.2,53.9,29.94,ENE,70,0.0,0.0,46,0.00,,---,0.00,VWS V14.01,2013-06-15 12:55:00,
2013-06-15 06:00:00,76.4,54.7,29.94,ENE,70,0.0,0.0,47,0.00,,---,0.00,VWS V14.01,2013-06-15 13:00:00,
2013-06-15 06:05:00,76.9,55.7,29.94,ENE,70,0.0,0.0,48,0.00,,---,0.00,VWS V14.01,2013-06-15 13:05:00,
2013-06-15 06:10:00,77.4,56.2,29.94,ENE,70,0.0,0.0,48,0.00,,---,0.00,VWS V14.01,2013-06-15 13:10:00,
2013-06-15 06:15:00,77.6,57.0,29.94,ENE,70,0.0,0.0,49,0.00,,---,0.00,VWS V14.01,2013-06-15 13:15:00,
2013-06-15 06:20:00,78.2,56.9,29.94,ENE,70,0.0,0.0,48,0.00,,---,0.00,VWS V14.01,2013-06-15 13:20:00,
2013-06-15 06:25:00,79.1,58.3,29.94,ENE,70,0.0,0.0,49,0.00,,---,0.00,VWS V14.01,2013-06-15 13:25:00,
2013-06-15 06:30:00,79.9,59.6,29.94,ENE,70,0.0,0.0,50,0.00,,---,0.00,VWS V14.01,2013-06-15 13:30:00,
2013-06-15 06:35:00,81.1,58.4,29.95,ENE,70,0.0,0.0,46,0.00,,---,0.00,VWS V14.01,2013-06-15 13:35:00,
2013-06-15 06:40:00,82.1,58.7,29.95,ENE,70,0.0,0.0,45,0.00,,---,0.00,VWS V14.01,2013-06-15 13:40:00,
2013-06-15 06:45:00,83.0,58.2,29.95,ENE,70,0.0,0.0,43,0.00,,---,0.00,VWS V14.01,2013-06-15 13:45:00,
2013-06-15 06:50:00,83.9,60.9,29.95,ENE,70,0.0,0.0,46,0.00,,---,0.00,VWS V14.01,2013-06-15 13:50:00,
2013-06-15 06:55:00,84.8,55.7,29.95,ENE,70,0.0,0.0,37,0.00,,---,0.00,VWS V14.01,2013-06-15 13:55:00,
2013-06-15 07:00:00,85.6,57.8,29.95,ENE,70,0.0,0.0,39,0.00,,---,0.00,VWS V14.01,2013-06-15 14:00:00,
2013-06-15 07:05:00,86.3,57.7,29.95,ENE,70,0.0,0.0,38,0.00,,---,0.00,VWS V14.01,2013-06-15 14:05:00,
2013-06-15 07:10:00,87.0,56.8,29.95,ENE,70,0.0,0.0,36,0.00,,---,0.00,VWS V14.01,2013-06-15 14:10:00,
2013-06-15 07:15:00,87.6,57.4,29.95,ENE,71,0.0,0.0,36,0.00,,---,0.00,VWS V14.01,2013-06-15 14:15:00,
2013-06-15 07:20:00,88.3,56.4,29.95,ENE,70,0.0,0.0,34,0.00,,---,0.00,VWS V14.01,2013-06-15 14:20:00,
2013-06-15 07:25:00,88.6,54.1,29.95,ENE,70,0.0,0.0,31,0.00,,---,0.00,VWS V14.01,2013-06-15 14:25:00,
2013-06-15 07:30:00,88.5,54.9,29.96,ENE,70,0.0,0.0,32,0.00,,---,0.00,VWS V14.01,2013-06-15 14:30:00,
2013-06-15 07:35:00,88.6,55.0,29.96,ENE,70,0.0,0.0,32,0.00,,---,0.00,VWS V14.01,2013-06-15 14:35:00,
2013-06-15 07:40:00,88.5,55.8,29.96,ENE,70,0.0,0.0,33,0.00,,---,0.00,VWS V14.01,2013-06-15 14:40:00,
2013-06-15 07:45:00,88.3,55.6,29.96,SSW,212,0.0,0.0,33,0.00,,---,0.00,VWS V14.01,2013-06-15 14:45:00,
2013-06-15 07:50:00,88.2,54.7,29.96,SSW,212,0.0,0.0,32,0.00,,---,0.00,VWS V14.01,2013-06-15 14:50:00,
2013-06-15 07:55:00,88.7,56.8,29.96,SSW,212,0.0,0.0,34,0.00,,---,0.00,VWS V14.01,2013-06-15 14:55:00,
2013-06-15 08:00:00,89.5,54.9,29.97,SSW,212,0.0,0.0,31,0.00,,---,0.00,VWS V14.01,2013-06-15 15:00:00,
2013-06-15 08:05:00,89.9,55.2,29.97,SSW,212,0.0,1.0,31,0.00,,---,0.00,VWS V14.01,2013-06-15 15:05:00,
2013-06-15 08:10:00,89.9,55.2,29.97,SSW,212,0.0,0.0,31,0.00,,---,0.00,VWS V14.01,2013-06-15 15:10:00,
2013-06-15 08:15:00,90.2,56.4,29.97,SSW,212,1.0,1.0,32,0.00,,---,0.00,VWS V14.01,2013-06-15 15:15:00,
2013-06-15 08:20:00,90.3,55.6,29.97,WSW,243,0.0,0.0,31,0.00,,---,0.00,VWS V14.01,2013-06-15 15:20:00,
2013-06-15 08:25:00,90.4,55.7,29.97,WSW,243,0.0,0.0,31,0.00,,---,0.00,VWS V14.01,2013-06-15 15:25:00,
2013-06-15 08:30:00,90.7,55.9,29.97,WNW,298,1.0,2.0,31,0.00,,---,0.00,VWS V14.01,2013-06-15 15:30:00,
2013-06-15 08:35:00,90.6,55.0,29.97,WNW,289,3.0,6.0,30,0.00,,---,0.00,VWS V14.01,2013-06-15 15:35:00,
2013-06-15 08:40:00,90.1,55.4,29.97,NW,309,4.0,4.0,31,0.00,,---,0.00,VWS V14.01,2013-06-15 15:40:00,
2013-06-15 08:45:00,89.7,55.1,29.96,WSW,246,0.0,0.0,31,0.00,,---,0.00,VWS V14.01,2013-06-15 15:45:00,
2013-06-15 08:50:00,90.4,55.7,29.96,NW,319,0.0,1.0,31,0.00,,---,0.00,VWS V14.01,2013-06-15 15:50:00,
2013-06-15 08:55:00,91.1,55.4,29.96,WNW,292,4.0,7.0,30,0.00,,---,0.00,VWS V14.01,2013-06-15 15:55:00,
2013-06-15 09:00:00,91.2,55.5,29.96,North,5,0.0,2.0,30,0.00,,---,0.00,VWS V14.01,2013-06-15 16:00:00,
2013-06-15 09:05:00,91.5,55.7,29.96,West,279,1.0,4.0,30,0.00,,---,0.00,VWS V14.01,2013-06-15 16:05:00,
2013-06-15 09:10:00,91.6,55.8,29.96,NNE,22,0.0,2.0,30,0.00,,---,0.00,VWS V14.01,2013-06-15 16:10:00,
2013-06-15 09:15:00,91.5,55.7,29.95,WNW,298,0.0,1.0,30,0.00,,---,0.00,VWS V14.01,2013-06-15 16:15:00,
2013-06-15 09:20:00,91.9,56.1,29.95,SW,236,2.0,2.0,30,0.00,,---,0.00,VWS V14.01,2013-06-15 16:20:00,
2013-06-15 09:25:00,92.0,56.2,29.95,West,262,1.0,1.0,30,0.00,,---,0.00,VWS V14.01,2013-06-15 16:25:00,
2013-06-15 09:30:00,92.2,56.3,29.95,WNW,288,8.0,8.0,30,0.00,,---,0.00,VWS V14.01,2013-06-15 16:30:00,
2013-06-15 09:35:00,92.3,55.5,29.95,West,273,2.0,6.0,29,0.00,,---,0.00,VWS V14.01,2013-06-15 16:35:00,
2013-06-15 09:40:00,92.2,54.4,29.95,WNW,292,1.0,4.0,28,0.00,,---,0.00,VWS V14.01,2013-06-15 16:40:00,
2013-06-15 09:45:00,92.4,54.6,29.95,WSW,244,0.0,0.0,28,0.00,,---,0.00,VWS V14.01,2013-06-15 16:45:00,
2013-06-15 09:50:00,92.6,54.8,29.95,WNW,282,0.0,2.0,28,0.00,,---,0.00,VWS V14.01,2013-06-15 16:50:00,
2013-06-15 09:55:00,93.1,55.2,29.95,WSW,252,3.0,5.0,28,0.00,,---,0.00,VWS V14.01,2013-06-15 16:55:00,
2013-06-15 10:00:00,93.5,54.5,29.95,West,266,0.0,3.0,27,0.00,,---,0.00,VWS V14.01,2013-06-15 17:00:00,
2013-06-15 10:05:00,93.6,55.6,29.95,SSW,203,0.0,3.0,28,0.00,,---,0.00,VWS V14.01,2013-06-15 17:05:00,
2013-06-15 10:10:00,93.4,54.5,29.95,SW,234,0.0,1.0,27,0.00,,---,0.00,VWS V14.01,2013-06-15 17:10:00,
2013-06-15 10:15:00,93.7,54.7,29.95,WSW,242,1.0,3.0,27,0.00,,---,0.00,VWS V14.01,2013-06-15 17:15:00,
2013-06-15 10:20:00,93.9,54.9,29.95,SW,225,6.0,7.0,27,0.00,,---,0.00,VWS V14.01,2013-06-15 17:20:00,
2013-06-15 10:25:00,93.8,53.8,29.95,WNW,294,0.0,1.0,26,0.00,,---,0.00,VWS V14.01,2013-06-15 17:25:00,
2013-06-15 10:30:00,94.0,53.9,29.95,West,264,0.0,3.0,26,0.00,,---,0.00,VWS V14.01,2013-06-15 17:30:00,
2013-06-15 10:35:00,94.4,54.3,29.94,North,355,0.0,0.0,26,0.00,,---,0.00,VWS V14.01,2013-06-15 17:35:00,
2013-06-15 10:40:00,94.9,54.7,29.95,NW,304,0.0,3.0,26,0.00,,---,0.00,VWS V14.01,2013-06-15 17:40:00,
2013-06-15 10:45:00,95.3,54.0,29.94,WNW,283,0.0,7.0,25,0.00,,---,0.00,VWS V14.01,2013-06-15 17:45:00,
2013-06-15 10:50:00,95.6,54.2,29.94,WSW,249,0.0,5.0,25,0.00,,---,0.00,VWS V14.01,2013-06-15 17:50:00,
2013-06-15 10:55:00,95.7,52.0,29.94,WNW,286,6.0,7.0,23,0.00,,---,0.00,VWS V14.01,2013-06-15 17:55:00,
2013-06-15 11:00:00,95.1,51.5,29.94,East,89,0.0,1.0,23,0.00,,---,0.00,VWS V14.01,2013-06-15 18:00:00,
2013-06-15 11:05:00,95.3,52.8,29.94,WSW,254,2.0,2.0,24,0.00,,---,0.00,VWS V14.01,2013-06-15 18:05:00,
2013-06-15 11:10:00,96.2,53.6,29.94,WSW,244,5.0,8.0,24,0.00,,---,0.00,VWS V14.01,2013-06-15 18:10:00,
2013-06-15 11:15:00,96.5,51.5,29.94,SW,219,0.0,2.0,22,0.00,,---,0.00,VWS V14.01,2013-06-15 18:15:00,
2013-06-15 11:20:00,96.3,52.5,29.93,ESE,121,0.0,1.0,23,0.00,,---,0.00,VWS V14.01,2013-06-15 18:20:00,
2013-06-15 11:25:00,95.9,53.3,29.93,ESE,109,1.0,1.0,24,0.00,,---,0.00,VWS V14.01,2013-06-15 18:25:00,
2013-06-15 11:30:00,96.5,53.8,29.93,SSW,205,3.0,7.0,24,0.00,,---,0.00,VWS V14.01,2013-06-15 18:30:00,
2013-06-15 11:35:00,97.1,54.3,29.93,WSW,240,6.0,6.0,24,0.00,,---,0.00,VWS V14.01,2013-06-15 18:35:00,
2013-06-15 11:40:00,97.1,53.2,29.93,SSW,210,2.0,2.0,23,0.00,,---,0.00,VWS V14.01,2013-06-15 18:40:00,
2013-06-15 11:45:00,96.9,53.0,29.93,ENE,65,0.0,1.0,23,0.00,,---,0.00,VWS V14.01,2013-06-15 18:45:00,
2013-06-15 11:50:00,96.8,54.1,29.92,WSW,241,0.0,1.0,24,0.00,,---,0.00,VWS V14.01,2013-06-15 18:50:00,
2013-06-15 11:55:00,97.1,54.3,29.92,East,98,0.0,2.0,24,0.00,,---,0.00,VWS V14.01,2013-06-15 18:55:00,
2013-06-15 12:00:00,96.8,54.1,29.92,WSW,252,5.0,7.0,24,0.00,,---,0.00,VWS V14.01,2013-06-15 19:00:00,
2013-06-15 12:05:00,96.6,53.9,29.92,WSW,249,0.0,3.0,24,0.00,,---,0.00,VWS V14.01,2013-06-15 19:05:00,
2013-06-15 12:10:00,97.2,54.4,29.91,WNW,288,2.0,7.0,24,0.00,,---,0.00,VWS V14.01,2013-06-15 19:10:00,
2013-06-15 12:15:00,97.8,54.9,29.91,WNW,284,1.0,3.0,24,0.00,,---,0.00,VWS V14.01,2013-06-15 19:15:00,
2013-06-15 12:20:00,98.6,54.4,29.91,WNW,288,1.0,2.0,23,0.00,,---,0.00,VWS V14.01,2013-06-15 19:20:00,
2013-06-15 12:25:00,97.9,53.8,29.91,North,5,8.0,8.0,23,0.00,,---,0.00,VWS V14.01,2013-06-15 19:25:00,
2013-06-15 12:30:00,97.1,54.3,29.91,WNW,292,3.0,4.0,24,0.00,,---,0.00,VWS V14.01,2013-06-15 19:30:00,
2013-06-15 12:35:00,97.2,53.3,29.90,East,98,1.0,2.0,23,0.00,,---,0.00,VWS V14.01,2013-06-15 19:35:00,
2013-06-15 12:40:00,97.4,54.6,29.90,West,269,4.0,4.0,24,0.00,,---,0.00,VWS V14.01,2013-06-15 19:40:00,
2013-06-15 12:45:00,97.9,53.8,29.90,NNW,344,3.0,4.0,23,0.00,,---,0.00,VWS V14.01,2013-06-15 19:45:00,
2013-06-15 12:50:00,98.3,55.3,29.90,SW,228,0.0,0.0,24,0.00,,---,0.00,VWS V14.01,2013-06-15 19:50:00,
2013-06-15 12:55:00,98.1,54.0,29.89,West,277,1.0,3.0,23,0.00,,---,0.00,VWS V14.01,2013-06-15 19:55:00,
2013-06-15 13:00:00,97.3,59.8,29.90,WSW,241,1.0,4.0,29,0.00,,---,0.00,VWS V14.01,2013-06-15 20:00:00,
2013-06-15 13:05:00,95.3,64.9,29.90,West,271,0.0,3.0,37,0.00,,---,0.00,VWS V14.01,2013-06-15 20:05:00,
2013-06-15 13:10:00,93.4,57.4,29.89,WSW,237,0.0,0.0,30,0.00,,---,0.00,VWS V14.01,2013-06-15 20:10:00,
2013-06-15 13:15:00,92.9,60.4,29.90,WSW,237,0.0,0.0,34,0.00,,---,0.00,VWS V14.01,2013-06-15 20:15:00,
2013-06-15 13:20:00,92.8,59.5,29.90,WSW,237,0.0,0.0,33,0.00,,---,0.00,VWS V14.01,2013-06-15 20:20:00,
2013-06-15 13:25:00,92.3,63.0,29.90,SSE,167,6.0,9.0,38,0.01,,---,0.01,VWS V14.01,2013-06-15 20:25:00,
2013-06-15 13:30:00,90.1,66.6,29.90,ESE,105,4.0,8.0,46,0.01,,---,0.01,VWS V14.01,2013-06-15 20:30:00,
2013-06-15 13:35:00,89.1,65.0,29.90,ENE,78,9.0,16.0,45,0.01,,---,0.01,VWS V14.01,2013-06-15 20:35:00,
2013-06-15 13:40:00,88.5,59.7,29.90,SE,138,7.0,10.0,38,0.02,,---,0.02,VWS V14.01,2013-06-15 20:40:00,
2013-06-15 13:45:00,87.6,59.6,29.89,ENE,78,1.0,3.0,39,0.02,,---,0.02,VWS V14.01,2013-06-15 20:45:00,
2013-06-15 13:50:00,89.2,61.8,29.89,East,84,3.0,7.0,40,0.02,,---,0.02,VWS V14.01,2013-06-15 20:50:00,
2013-06-15 13:55:00,90.3,60.5,29.89,ESE,103,6.0,9.0,37,0.02,,---,0.02,VWS V14.01,2013-06-15 20:55:00,
2013-06-15 14:00:00,90.4,59.0,29.88,East,86,1.0,8.0,35,0.02,,---,0.02,VWS V14.01,2013-06-15 21:00:00,
2013-06-15 14:05:00,90.5,58.3,29.88,East,101,6.0,8.0,34,0.02,,---,0.02,VWS V14.01,2013-06-15 21:05:00,
2013-06-15 14:10:00,90.1,61.1,29.88,ESE,111,4.0,12.0,38,0.02,,---,0.02,VWS V14.01,2013-06-15 21:10:00,
2013-06-15 14:15:00,89.2,58.8,29.88,NE,36,3.0,4.0,36,0.02,,---,0.02,VWS V14.01,2013-06-15 21:15:00,
2013-06-15 14:20:00,89.2,61.0,29.88,ESE,115,2.0,7.0,39,0.02,,---,0.02,VWS V14.01,2013-06-15 21:20:00,
2013-06-15 14:25:00,87.1,63.2,29.89,ESE,116,3.0,9.0,45,0.01,,---,0.02,VWS V14.01,2013-06-15 21:25:00,
2013-06-15 14:30:00,83.4,65.6,29.90,SE,124,8.0,9.0,55,0.01,,---,0.02,VWS V14.01,2013-06-15 21:30:00,
2013-06-15 14:35:00,79.8,67.9,29.88,ENE,73,1.0,9.0,67,0.04,,---,0.05,VWS V14.01,2013-06-15 21:35:00,
2013-06-15 14:40:00,78.8,59.7,29.86,ESE,107,11.0,11.0,52,0.03,,---,0.05,VWS V14.01,2013-06-15 21:40:00,
2013-06-15 14:45:00,82.0,58.6,29.87,NE,44,3.0,5.0,45,0.03,,---,0.05,VWS V14.01,2013-06-15 21:45:00,
2013-06-15 14:50:00,82.6,61.5,29.87,NE,43,10.0,14.0,49,0.03,,---,0.05,VWS V14.01,2013-06-15 21:50:00,
2013-06-15 14:55:00,83.8,60.8,29.86,North,355,10.0,10.0,46,0.03,,---,0.05,VWS V14.01,2013-06-15 21:55:00,
2013-06-15 15:00:00,85.4,61.0,29.86,East,83,0.0,3.0,44,0.03,,---,0.05,VWS V14.01,2013-06-15 22:00:00,
2013-06-15 15:05:00,87.5,62.9,29.86,ENE,61,0.0,1.0,44,0.03,,---,0.05,VWS V14.01,2013-06-15 22:05:00,
2013-06-15 15:10:00,88.1,62.8,29.86,ENE,67,3.0,9.0,43,0.03,,---,0.05,VWS V14.01,2013-06-15 22:10:00,
2013-06-15 15:15:00,88.1,62.8,29.85,ESE,105,6.0,7.0,43,0.03,,---,0.05,VWS V14.01,2013-06-15 22:15:00,
2013-06-15 15:20:00,88.7,64.0,29.85,ESE,107,3.0,3.0,44,0.03,,---,0.05,VWS V14.01,2013-06-15 22:20:00,
2013-06-15 15:25:00,89.9,62.4,29.85,ESE,103,6.0,6.0,40,0.03,,---,0.05,VWS V14.01,2013-06-15 22:25:00,
2013-06-15 15:30:00,91.0,61.9,29.85,East,96,1.0,9.0,38,0.03,,---,0.05,VWS V14.01,2013-06-15 22:30:00,
2013-06-15 15:35:00,91.8,61.1,29.85,SE,138,3.0,4.0,36,0.00,,---,0.05,VWS V14.01,2013-06-15 22:35:00,
2013-06-15 15:40:00,92.5,61.7,29.85,ESE,113,1.0,3.0,36,0.00,,---,0.05,VWS V14.01,2013-06-15 22:40:00,
2013-06-15 15:45:00,93.2,62.3,29.85,East,81,0.0,2.0,36,0.00,,---,0.05,VWS V14.01,2013-06-15 22:45:00,
2013-06-15 15:50:00,93.8,60.4,29.84,ESE,113,0.0,1.0,33,0.00,,---,0.05,VWS V14.01,2013-06-15 22:50:00,
2013-06-15 15:55:00,94.4,58.2,29.84,East,101,0.0,0.0,30,0.00,,---,0.05,VWS V14.01,2013-06-15 22:55:00,
2013-06-15 16:00:00,95.2,57.0,29.84,East,101,0.0,1.0,28,0.00,,---,0.05,VWS V14.01,2013-06-15 23:00:00,
2013-06-15 16:05:00,96.2,56.8,29.84,East,101,0.0,0.0,27,0.00,,---,0.05,VWS V14.01,2013-06-15 23:05:00,
2013-06-15 16:10:00,96.9,57.4,29.84,East,101,0.0,0.0,27,0.00,,---,0.05,VWS V14.01,2013-06-15 23:10:00,
2013-06-15 16:15:00,97.5,56.9,29.84,SSW,200,4.0,4.0,26,0.00,,---,0.05,VWS V14.01,2013-06-15 23:15:00,
2013-06-15 16:20:00,98.0,57.3,29.84,SE,145,1.0,1.0,26,0.00,,---,0.05,VWS V14.01,2013-06-15 23:20:00,
2013-06-15 16:25:00,98.1,55.2,29.84,SSE,166,0.0,1.0,24,0.00,,---,0.05,VWS V14.01,2013-06-15 23:25:00,
2013-06-15 16:30:00,98.5,53.1,29.84,SSW,200,2.0,3.0,22,0.00,,---,0.05,VWS V14.01,2013-06-15 23:30:00,
2013-06-15 16:35:00,99.2,54.9,29.83,WSW,258,3.0,3.0,23,0.00,,---,0.05,VWS V14.01,2013-06-15 23:35:00,
2013-06-15 16:40:00,99.5,54.0,29.83,WSW,237,2.0,3.0,22,0.00,,---,0.05,VWS V14.01,2013-06-15 23:40:00,
2013-06-15 16:45:00,99.5,55.2,29.83,South,190,2.0,2.0,23,0.00,,---,0.05,VWS V14.01,2013-06-15 23:45:00,
2013-06-15 16:50:00,99.3,53.8,29.83,SSW,196,0.0,2.0,22,0.00,,---,0.05,VWS V14.01,2013-06-15 23:50:00,
2013-06-15 16:55:00,99.3,53.8,29.83,SW,231,4.0,5.0,22,0.00,,---,0.05,VWS V14.01,2013-06-15 23:55:00,
2013-06-15 17:00:00,99.0,57.1,29.83,SSW,200,0.0,2.0,25,0.00,,---,0.05,VWS V14.01,2013-06-16 00:00:00,
2013-06-15 17:05:00,98.8,53.4,29.83,SW,222,0.0,2.0,22,0.00,,---,0.05,VWS V14.01,2013-06-16 00:05:00,
2013-06-15 17:10:00,98.7,54.5,29.83,SSE,159,0.0,5.0,23,0.00,,---,0.05,VWS V14.01,2013-06-16 00:10:00,
2013-06-15 17:15:00,98.3,54.2,29.83,SSW,196,3.0,4.0,23,0.00,,---,0.05,VWS V14.01,2013-06-16 00:15:00,
2013-06-15 17:20:00,97.5,53.5,29.83,SSW,196,1.0,1.0,23,0.00,,---,0.05,VWS V14.01,2013-06-16 00:20:00,
2013-06-15 17:25:00,96.9,54.2,29.83,WSW,248,0.0,1.0,24,0.00,,---,0.05,VWS V14.01,2013-06-16 00:25:00,
2013-06-15 17:30:00,96.8,54.1,29.83,South,189,1.0,4.0,24,0.00,,---,0.05,VWS V14.01,2013-06-16 00:30:00,
2013-06-15 17:35:00,96.8,54.1,29.83,SSW,208,0.0,0.0,24,0.00,,---,0.05,VWS V14.01,2013-06-16 00:35:00,
2013-06-15 17:40:00,96.8,54.1,29.83,SSW,208,0.0,2.0,24,0.00,,---,0.05,VWS V14.01,2013-06-16 00:40:00,
2013-06-15 17:45:00,96.7,52.8,29.83,SSW,198,0.0,1.0,23,0.00,,---,0.05,VWS V14.01,2013-06-16 00:45:00,
2013-06-15 17:50:00,96.8,54.1,29.83,SSW,202,2.0,3.0,24,0.00,,---,0.05,VWS V14.01,2013-06-16 00:50:00,
2013-06-15 17:55:00,96.7,54.0,29.83,SSW,202,0.0,1.0,24,0.00,,---,0.05,VWS V14.01,2013-06-16 00:55:00,
2013-06-15 18:00:00,96.6,53.9,29.84,SSW,198,1.0,1.0,24,0.00,,---,0.05,VWS V14.01,2013-06-16 01:00:00,
2013-06-15 18:05:00,96.4,54.9,29.84,SE,144,1.0,1.0,25,0.00,,---,0.05,VWS V14.01,2013-06-16 01:05:00,
2013-06-15 18:10:00,96.9,53.0,29.85,South,188,4.0,7.0,23,0.00,,---,0.05,VWS V14.01,2013-06-16 01:10:00,
2013-06-15 18:15:00,96.2,55.8,29.85,WNW,294,0.0,0.0,26,0.00,,---,0.05,VWS V14.01,2013-06-16 01:15:00,
2013-06-15 18:20:00,95.6,56.3,29.85,SW,216,1.0,1.0,27,0.00,,---,0.05,VWS V14.01,2013-06-16 01:20:00,
2013-06-15 18:25:00,95.2,56.0,29.85,WSW,249,2.0,4.0,27,0.00,,---,0.05,VWS V14.01,2013-06-16 01:25:00,
2013-06-15 18:30:00,94.9,55.7,29.85,WNW,286,2.0,3.0,27,0.00,,---,0.05,VWS V14.01,2013-06-16 01:30:00,
2013-06-15 18:35:00,94.6,55.5,29.85,WSW,251,0.0,0.0,27,0.00,,---,0.05,VWS V14.01,2013-06-16 01:35:00,
2013-06-15 18:40:00,94.3,55.2,29.85,ESE,107,0.0,1.0,27,0.00,,---,0.05,VWS V14.01,2013-06-16 01:40:00,
2013-06-15 18:45:00,94.1,56.0,29.85,ESE,107,0.0,0.0,28,0.00,,---,0.05,VWS V14.01,2013-06-16 01:45:00,
2013-06-15 18:50:00,94.2,56.1,29.86,ESE,107,0.0,0.0,28,0.00,,---,0.05,VWS V14.01,2013-06-16 01:50:00,
2013-06-15 18:55:00,93.8,55.8,29.86,ENE,64,0.0,0.0,28,0.00,,---,0.05,VWS V14.01,2013-06-16 01:55:00,
2013-06-15 19:00:00,93.3,57.3,29.86,ENE,72,2.0,4.0,30,0.00,,---,0.05,VWS V14.01,2013-06-16 02:00:00,
2013-06-15 19:05:00,92.8,55.9,29.86,NE,36,0.0,0.0,29,0.00,,---,0.05,VWS V14.01,2013-06-16 02:05:00,
2013-06-15 19:10:00,92.6,56.7,29.86,SSE,168,0.0,4.0,30,0.00,,---,0.05,VWS V14.01,2013-06-16 02:10:00,
2013-06-15 19:15:00,92.2,57.2,29.86,SSE,168,0.0,0.0,31,0.00,,---,0.05,VWS V14.01,2013-06-16 02:15:00,
2013-06-15 19:20:00,91.8,56.0,29.86,SSE,168,0.0,0.0,30,0.00,,---,0.05,VWS V14.01,2013-06-16 02:20:00,
2013-06-15 19:25:00,91.4,54.7,29.86,SE,132,2.0,8.0,29,0.00,,---,0.05,VWS V14.01,2013-06-16 02:25:00,
2013-06-15 19:30:00,91.5,54.8,29.86,ESE,109,0.0,1.0,29,0.00,,---,0.05,VWS V14.01,2013-06-16 02:30:00,
2013-06-15 19:35:00,91.2,55.5,29.87,SE,134,0.0,2.0,30,0.00,,---,0.05,VWS V14.01,2013-06-16 02:35:00,
2013-06-15 19:40:00,90.6,55.0,29.87,East,94,2.0,4.0,30,0.00,,---,0.05,VWS V14.01,2013-06-16 02:40:00,
2013-06-15 19:45:00,90.2,54.6,29.87,ESE,119,0.0,1.0,30,0.00,,---,0.05,VWS V14.01,2013-06-16 02:45:00,
2013-06-15 19:50:00,89.8,55.2,29.87,ESE,122,0.0,0.0,31,0.00,,---,0.05,VWS V14.01,2013-06-16 02:50:00,
2013-06-15 19:55:00,89.4,55.7,29.87,East,92,0.0,2.0,32,0.00,,---,0.05,VWS V14.01,2013-06-16 02:55:00,
2013-06-15 20:00:00,88.8,56.0,29.88,East,88,0.0,0.0,33,0.00,,---,0.05,VWS V14.01,2013-06-16 03:00:00,
2013-06-15 20:05:00,88.2,55.5,29.88,ESE,102,0.0,0.0,33,0.00,,---,0.05,VWS V14.01,2013-06-16 03:05:00,
2013-06-15 20:10:00,87.6,55.0,29.88,WSW,238,4.0,4.0,33,0.00,,---,0.05,VWS V14.01,2013-06-16 03:10:00,
2013-06-15 20:15:00,87.7,55.9,29.88,SSW,193,0.0,0.0,34,0.00,,---,0.05,VWS V14.01,2013-06-16 03:15:00,
2013-06-15 20:20:00,87.6,55.8,29.89,South,174,0.0,0.0,34,0.00,,---,0.05,VWS V14.01,2013-06-16 03:20:00,
2013-06-15 20:25:00,87.3,55.5,29.89,SE,131,0.0,0.0,34,0.00,,---,0.05,VWS V14.01,2013-06-16 03:25:00,
2013-06-15 20:30:00,87.0,55.3,29.89,WNW,289,0.0,0.0,34,0.00,,---,0.05,VWS V14.01,2013-06-16 03:30:00,
2013-06-15 20:35:00,86.7,55.8,29.89,SSW,207,0.0,0.0,35,0.00,,---,0.05,VWS V14.01,2013-06-16 03:35:00,
2013-06-15 20:40:00,86.3,56.2,29.90,West,276,0.0,0.0,36,0.00,,---,0.05,VWS V14.01,2013-06-16 03:40:00,
2013-06-15 20:45:00,85.9,55.9,29.90,WNW,298,0.0,0.0,36,0.00,,---,0.05,VWS V14.01,2013-06-16 03:45:00,
2013-06-15 20:50:00,85.5,56.3,29.90,WNW,298,0.0,1.0,37,0.00,,---,0.05,VWS V14.01,2013-06-16 03:50:00,
2013-06-15 20:55:00,85.2,56.0,29.91,WNW,298,0.0,0.0,37,0.00,,---,0.05,VWS V14.01,2013-06-16 03:55:00,
2013-06-15 21:00:00,84.8,56.4,29.90,WNW,298,0.0,0.0,38,0.00,,---,0.05,VWS V14.01,2013-06-16 04:00:00,
2013-06-15 21:01:00,84.7,56.3,29.91,WNW,298,0.0,0.0,38,0.00,,---,0.05,VWS V14.01,2013-06-16 04:01:00,
2013-06-15 21:06:00,84.1,56.5,29.91,WNW,298,0.0,0.0,39,0.00,,---,0.05,VWS V14.01,2013-06-16 04:06:00,
2013-06-15 21:11:00,83.5,56.7,29.91,WNW,298,0.0,0.0,40,0.00,,---,0.05,VWS V14.01,2013-06-16 04:11:00,
2013-06-15 21:16:00,83.0,56.9,29.91,WNW,298,0.0,0.0,41,0.00,,---,0.05,VWS V14.01,2013-06-16 04:16:00,
2013-06-15 21:21:00,82.4,57.7,29.92,WNW,298,0.0,0.0,43,0.00,,---,0.05,VWS V14.01,2013-06-16 04:21:00,
2013-06-15 21:26:00,82.0,58.0,29.92,WNW,298,0.0,0.0,44,0.00,,---,0.05,VWS V14.01,2013-06-16 04:26:00,
2013-06-15 21:31:00,81.5,58.1,29.92,WNW,298,0.0,0.0,45,0.00,,---,0.05,VWS V14.01,2013-06-16 04:31:00,
2013-06-15 21:36:00,81.1,57.8,29.92,WNW,298,0.0,0.0,45,0.00,,---,0.05,VWS V14.01,2013-06-16 04:36:00,
2013-06-15 21:41:00,80.8,58.1,29.92,WNW,298,0.0,0.0,46,0.00,,---,0.05,VWS V14.01,2013-06-16 04:41:00,
2013-06-15 21:46:00,80.5,58.4,29.93,WNW,298,0.0,0.0,47,0.00,,---,0.05,VWS V14.01,2013-06-16 04:46:00,
2013-06-15 21:51:00,80.1,58.7,29.93,WNW,298,0.0,0.0,48,0.00,,---,0.05,VWS V14.01,2013-06-16 04:51:00,
2013-06-15 21:56:00,79.6,59.3,29.93,WNW,298,0.0,1.0,50,0.00,,---,0.05,VWS V14.01,2013-06-16 04:56:00,
2013-06-15 22:01:00,79.3,59.1,29.93,WNW,298,0.0,0.0,50,0.00,,---,0.05,VWS V14.01,2013-06-16 05:01:00,
2013-06-15 22:06:00,79.1,58.9,29.93,WNW,298,0.0,1.0,50,0.00,,---,0.05,VWS V14.01,2013-06-16 05:06:00,
2013-06-15 22:11:00,79.4,59.2,29.93,WNW,298,0.0,0.0,50,0.00,,---,0.05,VWS V14.01,2013-06-16 05:11:00,
2013-06-15 22:16:00,79.3,59.1,29.93,WNW,298,0.0,0.0,50,0.00,,---,0.05,VWS V14.01,2013-06-16 05:16:00,
2013-06-15 22:21:00,79.0,58.2,29.94,WNW,298,0.0,0.0,49,0.00,,---,0.05,VWS V14.01,2013-06-16 05:21:00,
2013-06-15 22:26:00,78.8,59.2,29.94,WNW,298,0.0,0.0,51,0.00,,---,0.05,VWS V14.01,2013-06-16 05:26:00,
2013-06-15 22:31:00,78.5,58.3,29.94,WNW,298,0.0,0.0,50,0.00,,---,0.05,VWS V14.01,2013-06-16 05:31:00,
2013-06-15 22:36:00,78.3,58.2,29.94,WNW,298,0.0,0.0,50,0.00,,---,0.05,VWS V14.01,2013-06-16 05:36:00,
2013-06-15 22:41:00,78.1,58.5,29.94,WNW,298,0.0,0.0,51,0.00,,---,0.05,VWS V14.01,2013-06-16 05:41:00,
2013-06-15 22:46:00,77.9,57.8,29.94,WNW,298,0.0,1.0,50,0.00,,---,0.05,VWS V14.01,2013-06-16 05:46:00,
2013-06-15 22:51:00,78.0,58.4,29.94,WNW,298,0.0,1.0,51,0.00,,---,0.05,VWS V14.01,2013-06-16 05:51:00,
2013-06-15 22:56:00,77.9,57.8,29.94,WNW,298,0.0,0.0,50,0.00,,---,0.05,VWS V14.01,2013-06-16 05:56:00,
2013-06-15 23:01:00,77.9,57.8,29.94,WNW,298,0.0,0.0,50,0.00,,---,0.05,VWS V14.01,2013-06-16 06:01:00,
2013-06-15 23:06:00,78.2,57.5,29.94,WNW,298,0.0,0.0,49,0.00,,---,0.05,VWS V14.01,2013-06-16 06:06:00,
2013-06-15 23:11:00,78.2,57.5,29.94,WNW,298,0.0,0.0,49,0.00,,---,0.05,VWS V14.01,2013-06-16 06:11:00,
2013-06-15 23:16:00,78.3,57.6,29.95,WNW,298,0.0,0.0,49,0.00,,---,0.05,VWS V14.01,2013-06-16 06:16:00,
2013-06-15 23:21:00,78.1,58.5,29.95,WNW,298,0.0,0.0,51,0.00,,---,0.05,VWS V14.01,2013-06-16 06:21:00,
2013-06-15 23:26:00,77.7,57.6,29.95,WNW,298,0.0,0.0,50,0.00,,---,0.05,VWS V14.01,2013-06-16 06:26:00,
2013-06-15 23:31:00,77.4,58.4,29.95,WNW,298,0.0,0.0,52,0.00,,---,0.05,VWS V14.01,2013-06-16 06:31:00,
2013-06-15 23:36:00,77.1,58.1,29.95,WNW,298,0.0,0.0,52,0.00,,---,0.05,VWS V14.01,2013-06-16 06:36:00,
2013-06-15 23:41:00,76.9,58.5,29.95,WNW,298,0.0,0.0,53,0.00,,---,0.05,VWS V14.01,2013-06-16 06:41:00,
2013-06-15 23:46:00,76.6,58.7,29.95,WNW,298,0.0,0.0,54,0.00,,---,0.05,VWS V14.01,2013-06-16 06:46:00,
2013-06-15 23:51:00,76.3,57.9,29.95,WNW,298,0.0,0.0,53,0.00,,---,0.05,VWS V14.01,2013-06-16 06:51:00,
2013-06-15 23:56:00,76.4,57.5,29.95,WNW,298,0.0,0.0,52,0.00,,---,0.05,VWS V14.01,2013-06-16 06:56:00,